Station 46041 (LLNR 733) - CAPE ELIZABETH - 45NM NW of Aberdeen, WA Image indicating link to RSS feed of recent meteorological observations for station 46041


Conditions at 46041 as of
(8:10 pm PDT on 05/23/2024)
0310 GMT on 05/24/2024:
     

Click on the graph icon in the table below to see a time series plot of the last five days of that observation.

5-day plot - Wind Direction Wind Direction (WDIR):WSW ( 240 deg true )
5-day plot - Wind Speed Wind Speed (WSPD): 1.9 kts
5-day plot - Wind Gust Wind Gust (GST): 3.9 kts
5-day plot - Wave Height Wave Height (WVHT): 3.3 ft
5-day plot - Average Wave Period Average Period (APD): 6.0 sec
5-day plot - Mean Wave Direction Mean Wave Direction (MWD):WNW ( 298 deg true )
5-day plot - Atmospheric Pressure Atmospheric Pressure (PRES):30.10 in
5-day plot - Air Temperature Air Temperature (ATMP): 51.8 °F
5-day plot - Dew Point Dew Point (DEWP): 45.7 °F
5-day plot - Wind Speed at 10 Meters Wind Speed at 10 meters (WSPD10M): 1.9 kts
5-day plot - Wind Speed at 20 Meters Wind Speed at 20 meters (WSPD20M): 1.9 kts
5-day plot -  Wind Speed, Wind Gust and Atmospheric Pressure Combined plot of Wind Speed, Gust, and Air Pressure
Supplemental Measurements
Highest 1-minute Wind Speed
Time (PDT)5-day plot - 1-Minute Wind Speed WSPD 5-day plot - 1-Minute Wind Direction WDIR
8:00 pm 1.9 kts-
Previous observations
TIME
(PDT)
5-day plot - Wind Direction
WDIR
 
5-day plot - Wind Speed
WSPD
kts
5-day plot - Wind Gust
GST
kts
5-day plot - Wave Height
WVHT
ft
5-day plot - Dominant Wave Period
DPD
sec
5-day plot - Average Wave Period
APD
sec
5-day plot - Mean Wave Direction
MWD
 
5-day plot - Atmospheric Pressure
PRES
in
5-day plot - Pressure Tendency
PTDY
in
5-day plot - Air Temperature
ATMP
°F
5-day plot - Water Temperature
WTMP
°F
5-day plot - Dew Point
DEWP
°F
5-day plot - Salinity
SAL
psu
5-day plot - Visibility
VIS
nmi
5-day plot - Tide (above MLLW)
TIDE
ft
2024-05-23 08:00 pmWSW 1.9 3.9----30.10-0.04 51.8- 45.3---
2024-05-23 07:50 pm W 3.9 5.8 3.6 166.4WSW30.10- 51.8- 45.5---
2024-05-23 07:40 pmWSW 3.9 5.8----30.10- 52.2- 46.0---
2024-05-23 07:30 pmWSW 1.9 3.9----30.10- 52.2- 45.3---
2024-05-23 07:20 pmWSW 3.9 5.8 3.3 166.3 SW30.10- 52.2- 45.3---
2024-05-23 07:10 pmWSW 3.9 5.8 3.3-6.3 SW30.11- 52.2- 45.3---
2024-05-23 07:00 pmWSW 3.9 5.8----30.11-0.04 52.3- 45.3---
2024-05-23 06:50 pmWSW 5.8 7.8 3.6 166.4 SW30.11- 52.2- 45.0---
2024-05-23 06:40 pm SW 3.9 5.8----30.11- 52.2- 45.0---
2024-05-23 06:30 pm SW 5.8 7.8----30.11- 52.3- 45.5---
2024-05-23 06:20 pm SW 5.8 7.8 3.6 166.4 SW30.12- 52.2- 45.3---
2024-05-23 06:10 pm SW 3.9 7.8----30.12- 52.3- 45.3---
2024-05-23 06:00 pm SW 5.8 7.8----30.12-0.04 52.2- 45.0---
2024-05-23 05:50 pmWSW 5.8 7.8 3.6 166.3 SW30.13- 52.5- 45.7---
2024-05-23 05:40 pm SW 5.8 5.8----30.13- 52.5- 45.3---
2024-05-23 05:30 pm SW 3.9 5.8----30.13- 52.5- 45.3---
2024-05-23 05:20 pm SW 5.8 5.8 3.6 166.1 SW30.13- 52.7- 45.5---
2024-05-23 05:10 pm SW 5.8 5.8 3.6-6.1 SW30.14- 52.7- 45.5---
2024-05-23 05:00 pm SW 5.8 5.8----30.14-0.03 52.7- 45.5---
2024-05-23 04:50 pm SW 5.8 5.8 3.3 165.9 SW30.14- 52.5- 45.5---
2024-05-23 04:40 pm SW 5.8 7.8----30.14- 52.5- 45.5---
2024-05-23 04:10 pmSSW 5.8 7.8 3.6-6.1 SW30.15- 52.5- 45.9---
2024-05-23 04:00 pm SW 5.8 7.8----30.15-0.02 52.5- 45.7---
2024-05-23 03:50 pm SW 5.8 5.8 3.9 166.2 SW30.15- 52.5- 45.7---
2024-05-23 03:40 pm SW 5.8 7.8----30.15- 52.5- 45.5---
2024-05-23 03:30 pm SW 5.8 9.7----30.16- 52.5- 45.5---
2024-05-23 03:20 pm SW 5.8 7.8 3.6 76.0WNW30.16- 52.5- 45.7---
2024-05-23 03:10 pm SW 5.8 7.8----30.16- 52.5- 45.7---
2024-05-23 03:00 pm SW 5.8 7.8----30.16-0.01 52.5- 45.9---
2024-05-23 02:50 pm SW 5.8 7.8 3.9 166.1 SW30.16- 52.5- 46.0---
2024-05-23 02:40 pm SW 5.8 7.8----30.16- 52.3- 46.2---
2024-05-23 02:30 pmWSW 5.8 7.8----30.16- 52.3- 46.4---
2024-05-23 02:20 pmWSW 5.8 7.8 3.9 85.9WNW30.16- 52.2- 46.2---
2024-05-23 02:10 pmWSW 5.8 7.8 3.9-5.9WNW30.16- 52.2- 46.4---
2024-05-23 02:00 pmWSW 5.8 7.8----30.16+0.00 52.2- 46.4---
2024-05-23 01:50 pmWSW 5.8 7.8 4.3 166.1 SW30.16- 52.2- 46.2---
2024-05-23 01:40 pmWSW 5.8 7.8----30.16- 52.2- 46.6---
2024-05-23 01:30 pmWSW 5.8 7.8----30.17- 52.2- 46.9---
2024-05-23 01:20 pmWSW 5.8 7.8 4.3 85.9WNW30.16- 52.2- 46.9---
2024-05-23 01:10 pmWSW 5.8 7.8 4.3-5.9WNW30.17- 52.2- 46.9---
2024-05-23 01:00 pmWSW 5.8 5.8----30.17+0.00 52.2- 46.9---
2024-05-23 12:50 pmWSW 5.8 7.8 4.3 165.8 SW30.17- 52.3- 47.3---
2024-05-23 12:40 pmWSW 5.8 7.8----30.17- 52.2- 46.9---
2024-05-23 12:30 pmWSW 5.8 7.8----30.17- 52.2- 46.9---
2024-05-23 12:20 pmWSW 5.8 7.8 4.6 166.0WSW30.17- 52.2- 47.3---
2024-05-23 12:10 pmWSW 3.9 5.8 4.6-6.0WSW30.17- 52.0- 47.3---
2024-05-23 12:00 pm SW 5.8 7.8----30.17+0.00 52.0- 48.0---
2024-05-23 11:50 amSSW 3.9 5.8 4.3 75.9 NW30.17- 51.8- 48.4---
2024-05-23 11:40 amSSW 3.9 5.8----30.17- 51.6- 48.9---
2024-05-23 11:30 am S 3.9 5.8----30.17- 51.8- 49.5---
2024-05-23 11:20 am S 3.9 5.8 4.6 75.8 NW30.17- 51.8- 49.5---
2024-05-23 11:10 am S 3.9 5.8----30.17- 51.8- 49.5---
2024-05-23 11:00 am S 3.9 5.8----30.17+0.01 51.8- 49.3---
2024-05-23 10:50 amSSW 3.9 5.8 4.6 86.0 NW30.16- 51.8- 49.1---
2024-05-23 10:40 amSSW 3.9 5.8----30.16- 51.4- 48.7---
2024-05-23 10:30 amSSW 3.9 5.8----30.16- 51.4- 49.3---
2024-05-23 10:20 amSSW 5.8 5.8 4.6 75.9 NW30.16- 51.4- 49.3---
2024-05-23 10:10 amSSW 5.8 7.8 4.6-5.9 NW30.16- 51.4- 49.5---
2024-05-23 10:00 amSSW 5.8 5.8----30.16+0.01 51.3- 49.3---
2024-05-23 09:50 am S 3.9 5.8 4.9 85.9WNW30.16- 51.3- 49.3---
2024-05-23 09:40 am S 3.9 5.8----30.17- 51.3- 49.3---
2024-05-23 09:30 am S 5.8 7.8----30.16- 51.3- 49.3---
2024-05-23 09:20 am S 5.8 7.8 4.9 86.0WNW30.16- 51.3- 49.3---
2024-05-23 09:10 am S 3.9 5.8 4.9-6.0WNW30.16- 51.4- 49.3---
2024-05-23 09:00 am S 3.9 5.8----30.16+0.01 51.3- 48.9---
2024-05-23 08:50 am S 3.9 7.8 5.2 86.1 NW30.16- 51.3- 48.6---
2024-05-23 08:40 am S 3.9 7.8 5.2-6.1 NW30.16- 51.1- 48.4---
2024-05-23 08:30 am S 3.9 7.8----30.16- 50.9- 48.2---
2024-05-23 08:20 am S 3.9 7.8 5.2 86.3 NW30.16- 51.1- 48.6---
2024-05-23 08:10 amSSE 1.9 5.8 5.2-6.3 NW30.16- 51.1- 48.6---
2024-05-23 08:00 am SE 1.9 5.8----30.16+0.02 51.1- 48.6---
2024-05-23 07:50 amSSE 1.9 3.9 5.6 86.3 NW30.16- 51.3- 48.6---
2024-05-23 07:40 amSSE 1.9 3.9 5.6-6.3 NW30.16- 51.3- 48.4---
2024-05-23 07:30 am S 1.9 5.8----30.16- 50.7- 47.8---
2024-05-23 07:20 am S 1.9 3.9 5.9 86.5 NW30.16- 51.1- 48.6---
2024-05-23 07:10 amSSW 3.9 3.9 5.9-6.5 NW30.16- 51.1- 48.4---
2024-05-23 07:00 am S 1.9 3.9----30.16+0.01 51.3- 48.4---
2024-05-23 06:50 am S 3.9 5.8 5.6 76.4WNW30.15- 51.3- 48.2---
2024-05-23 06:40 amSSW 3.9 3.9----30.15- 51.3- 48.2---
2024-05-23 06:30 am S 1.9 3.9----30.15- 51.3- 48.0---
2024-05-23 06:20 am S 1.9 3.9 5.2 86.4 NW30.15- 51.3- 48.0---
2024-05-23 06:10 am S 1.9 3.9 5.2-6.4 NW30.15- 51.4- 48.0---
2024-05-23 06:00 am S 3.9 5.8----30.15+0.01 51.3- 47.5---
2024-05-23 05:50 am S 3.9 5.8 5.6 86.6 NW30.15- 51.6- 47.7---
2024-05-23 05:40 amSSW 3.9 5.8----30.15- 51.8- 47.1---
2024-05-23 05:30 amWSW 3.9 5.8----30.14- 51.8- 46.4---
2024-05-23 05:20 am SW 1.9 3.9 5.2 96.3 NW30.14- 51.4- 46.4---
2024-05-23 05:10 am S 1.9 5.8----30.14- 51.4- 46.8---
2024-05-23 05:00 am S 1.9 3.9----30.14+0.00 51.4- 47.1---
2024-05-23 04:50 am SW 1.9 3.9 6.2 86.8 NW30.14- 51.1- 47.1---
2024-05-23 04:40 amWSW 1.9 3.9----30.14- 51.3- 47.8---
2024-05-23 04:30 amWSW 1.9 3.9----30.14- 51.6- 48.0---
2024-05-23 04:20 am SW 1.9 3.9 5.2 86.4WNW30.14- 51.6- 47.7---
2024-05-23 04:10 am SW 1.9 3.9----30.14- 51.8- 47.3---
2024-05-23 04:00 am SW 3.9 3.9----30.14+0.00 52.0- 46.8---
2024-05-23 03:50 amWSW 3.9 5.8 6.2 96.9 NW30.14- 52.0- 46.4---
2024-05-23 03:40 amWSW 3.9 5.8----30.14- 52.3- 45.9---
2024-05-23 03:30 amWSW 3.9 9.7----30.14- 52.0- 45.3---
2024-05-23 03:20 amWSW 3.9 5.8 6.2 96.7 NW30.14- 51.8- 45.7---
2024-05-23 03:10 amWSW 5.8 7.8 6.2-6.7 NW30.14- 51.3- 46.6---
2024-05-23 03:00 am SW 3.9 7.8----30.14+0.01 51.8- 48.0---
2024-05-23 02:50 am SW 5.8 5.8 6.2 96.6 NW30.14- 51.6- 47.3---
2024-05-23 02:40 amSSW 3.9 7.8----30.14- 51.3- 47.3---
2024-05-23 02:30 amSSW 3.9 5.8----30.14- 51.6- 48.0---
2024-05-23 02:20 amSSW 1.9 3.9 6.9 87.0WNW30.14- 51.6- 47.8---
2024-05-23 02:10 amSSW 1.9 3.9----30.14- 51.8- 47.8---
2024-05-23 02:00 am SW 3.9 5.8----30.14+0.02 52.0- 47.5---
2024-05-23 01:50 am SW 5.8 7.8 6.2 96.8 NW30.14- 51.6- 46.8---
2024-05-23 01:40 amSSW 5.8 7.8----30.14- 51.3- 46.9---
2024-05-23 01:30 amSSW 3.9 5.8----30.14- 50.9- 47.7---
2024-05-23 01:20 am SW 1.9 5.8 6.6 86.6 NW30.14- 51.1- 48.6---
2024-05-23 01:10 am SW 1.9 3.9 6.6-6.6 NW30.14- 51.4- 49.1---
2024-05-23 01:00 am SW 1.9 3.9----30.14+0.02 51.6- 49.1---
2024-05-23 12:50 am W 1.9 3.9 6.2 96.4WNW30.14- 51.6- 48.7---
2024-05-23 12:40 am W 3.9 5.8 6.2-6.4WNW30.14- 51.8- 48.6---
2024-05-23 12:30 am W 3.9 7.8----30.13- 51.6- 48.2---
2024-05-23 12:20 am W 5.8 7.8 6.9 96.8 NW30.13- 51.6- 48.0---
2024-05-23 12:10 am W 5.8 7.8 6.9-6.8 NW30.13- 51.6- 48.2---
2024-05-23 12:00 am W 3.9 7.8----30.13+0.03 51.6- 48.4---
2024-05-22 11:50 pm W 5.8 9.7 6.6 96.5 NW30.13- 51.6- 48.2---
2024-05-22 11:40 pm W 5.8 7.8----30.12- 51.1- 48.0---
2024-05-22 11:30 pmWSW 3.9 5.8----30.12- 51.3- 49.1---
2024-05-22 11:20 pmWSW 3.9 5.8 7.5 97.0WNW30.12- 51.6- 49.3---
2024-05-22 11:10 pm W 3.9 7.8----30.12- 51.6- 48.9---
2024-05-22 11:00 pm W 5.8 7.8----30.12+0.03 51.4- 48.6---
2024-05-22 10:50 pm W 5.8 7.8 7.2 96.6 NW30.12- 51.4- 48.7---
2024-05-22 10:40 pm W 5.8 7.8----30.12- 51.6- 48.7---
2024-05-22 10:30 pmWNW 5.8 9.7----30.12- 51.4- 48.4---
2024-05-22 10:20 pmWNW 3.9 7.8 8.2 96.8 NW30.12- 51.6- 48.7---
2024-05-22 10:10 pmWNW 5.8 9.7 8.2-6.8 NW30.11- 51.4- 48.4---
2024-05-22 10:00 pm NW 5.8 9.7----30.11+0.04 51.1- 48.4---
2024-05-22 09:50 pm NW 5.8 9.7 7.5 96.6 NW30.11- 51.3- 49.3---
2024-05-22 09:40 pm NW 5.8 7.8----30.11- 51.4- 49.6---
2024-05-22 09:30 pm NW 5.8 9.7----30.11- 51.6- 49.6---
2024-05-22 09:20 pm NW 7.8 11.7 8.2 96.7 NW30.11- 51.6- 49.5---
2024-05-22 09:10 pm NW 9.7 11.7----30.10- 51.4- 49.3---
2024-05-22 09:00 pm NW 9.7 11.7----30.10+0.04 51.6- 49.6---
2024-05-22 08:50 pm NW 9.7 11.7 7.9 96.6 NW30.10- 51.6- 49.6---
2024-05-22 08:40 pm NW 9.7 13.6----30.09- 51.4- 49.6---
2024-05-22 08:30 pm NW 9.7 13.6----30.09- 51.4- 49.8---
2024-05-22 08:20 pm NW 9.7 11.7 8.5 96.5WNW30.09- 51.4- 49.8---
2024-05-22 08:10 pm NW 7.8 11.7 8.5-6.5WNW30.09- 51.6- 50.0---
2024-05-22 08:00 pm NW 7.8 11.7----30.09+0.04 51.6- 49.8---
2024-05-22 07:50 pm NW 9.7 13.6 8.2 106.5 NW30.09- 51.6- 49.6---

Detailed Wave Summary
for 46041 as of
(8:10 pm PDT on 05/23/2024)
0310 GMT on 05/24/2024:

These wave data are displayed in rounded times.

     

Click on the graph icon in the table below to see a time series plot of the last five days of that observation.

5-day plot - Significant Wave Height Significant Wave Height (WVHT): 3.3 ft
5-day plot - Swell Height Swell Height (SwH): 3.3 ft
5-day plot - Swell Period Swell Period (SwP): 7.1 sec
5-day plot - Swell Direction Swell Direction (SwD):WNW
5-day plot - Wind Wave Height Wind Wave Height (WWH): 1.0 ft
5-day plot - Wind Wave Period Wind Wave Period (WWP): 4.0 sec
5-day plot - Wind Wave Direction Wind Wave Direction (WWD): W
5-day plot - Wave Steepness Wave Steepness (STEEPNESS): AVERAGE
5-day plot - Average Wave Period Average Wave Period (APD): 6.0 sec
Previous observations
TIME
(PDT)
5-day plot - Wave Height
WVHT
ft
5-day plot - Swell Height
SwH
ft
5-day plot - Swell Period
SwP
sec
5-day plot - Swell Direction
SwD
 
5-day plot - Wind Wave Height
WWH
ft
5-day plot - Wind Wave Period
WWP
sec
5-day plot - Wind Wave Direction
WWD
 
5-day plot - Wave Steepness
STEEPNESS
 
5-day plot - Average Wave Period
APD
sec
2024-05-23 07:40 pm 3.6 3.6 16.0WSW 1.0 4.0 WNW SWELL 6.4
2024-05-23 07:10 pm 3.3 3.3 16.0 SW 1.0 3.7 WNW SWELL 6.3
2024-05-23 06:40 pm 3.6 3.6 16.0 SW 1.0 4.0 WNW SWELL 6.4
2024-05-23 06:10 pm 3.6 3.3 16.0 SW 1.0 3.8 W SWELL 6.4
2024-05-23 05:40 pm 3.6 3.3 16.0 SW 1.0 4.0 WNW SWELL 6.3
2024-05-23 05:10 pm 3.6 3.3 16.0 SW 1.0 3.3 WNW SWELL 6.1
2024-05-23 04:40 pm 3.3 3.3 16.0 SW 1.0 3.3 WNW SWELL 5.9
2024-05-23 04:10 pm 3.6 3.3 16.0 SW 1.0 3.6 WNW SWELL 6.1
2024-05-23 03:40 pm 3.9 3.9 16.0 SW 1.0 3.8 WNW SWELL 6.2
2024-05-23 03:10 pm 3.6 3.6 7.1WNW 1.0 3.8 W AVERAGE 6.0
2024-05-23 02:40 pm 3.9 3.9 16.0 SW 1.3 4.0 WNW SWELL 6.1
2024-05-23 02:10 pm 3.9 3.6 7.7WNW 1.3 3.8 WNW AVERAGE 5.9
2024-05-23 01:40 pm 4.3 3.9 16.0 SW 1.3 4.0 WNW SWELL 6.1
2024-05-23 01:10 pm 4.3 3.9 8.3WNW 1.3 4.0 WNW AVERAGE 5.9
2024-05-23 12:40 pm 4.3 3.9 16.0 SW 1.3 3.8 WNW SWELL 5.8
2024-05-23 12:10 pm 4.6 4.3 16.0WSW 1.3 3.8 WNW SWELL 6.0
2024-05-23 11:40 am 4.3 3.9 7.1 NW 1.3 3.8 WNW STEEP 5.9
2024-05-23 11:10 am 4.6 4.3 7.1 NW 1.6 4.0 WNW STEEP 5.8
2024-05-23 10:40 am 4.6 4.6 7.7 NW 1.3 3.8 W AVERAGE 6.0
2024-05-23 10:10 am 4.6 4.3 7.1 NW 1.6 4.0 WNW STEEP 5.9
2024-05-23 09:40 am 4.9 4.9 8.3WNW 1.6 3.6 W AVERAGE 5.9
2024-05-23 09:10 am 4.9 4.9 7.7WNW 1.3 3.7 WNW AVERAGE 6.0
2024-05-23 08:40 am 5.2 4.9 7.7 NW 1.3 4.0 WNW AVERAGE 6.1
2024-05-23 08:10 am 5.2 5.2 7.7 NW 1.3 3.8 WNW AVERAGE 6.3
2024-05-23 07:40 am 5.6 5.2 8.3 NW 1.3 3.7 WNW AVERAGE 6.3
2024-05-23 07:10 am 5.9 5.6 8.3 NW 1.3 3.8 WNW AVERAGE 6.5
2024-05-23 06:40 am 5.6 5.2 7.1WNW 1.3 3.3 W STEEP 6.4
2024-05-23 06:10 am 5.2 4.9 8.3 NW 1.3 3.4 W AVERAGE 6.4
2024-05-23 05:40 am 5.6 5.6 8.3 NW 1.3 3.8 W AVERAGE 6.6
2024-05-23 05:10 am 5.2 4.9 9.1 NW 1.3 3.7 W AVERAGE 6.3
2024-05-23 04:40 am 6.2 5.9 8.3 NW 1.3 2.9 WNW AVERAGE 6.8
2024-05-23 04:10 am 5.2 5.2 7.7WNW 1.3 3.2 WNW AVERAGE 6.4
2024-05-23 03:40 am 6.2 5.9 9.1 NW 1.3 3.7 WNW AVERAGE 6.9
2024-05-23 03:10 am 6.2 5.9 9.1 NW 1.3 4.0 WNW AVERAGE 6.7
2024-05-23 02:40 am 6.2 5.9 9.1 NW 1.3 3.7 NW AVERAGE 6.6
2024-05-23 02:10 am 6.9 6.6 8.3WNW 1.3 3.7 NW AVERAGE 7.0
2024-05-23 01:40 am 6.2 6.2 9.1 NW 1.3 3.7 WNW AVERAGE 6.8
2024-05-23 01:10 am 6.6 6.2 8.3 NW 1.6 3.6 NNW AVERAGE 6.6
2024-05-23 12:40 am 6.2 5.9 9.1WNW 1.6 3.4 NW AVERAGE 6.4
2024-05-23 12:10 am 6.9 6.6 9.1 NW 1.3 3.8 NW AVERAGE 6.8
2024-05-22 11:40 pm 6.6 6.6 9.1 NW 1.6 3.7 WNW AVERAGE 6.5
2024-05-22 11:10 pm 7.5 7.2 9.1WNW 1.6 4.0 WNW AVERAGE 7.0
2024-05-22 10:40 pm 7.2 7.2 9.1 NW 1.6 4.0 NW AVERAGE 6.6
2024-05-22 10:10 pm 8.2 7.9 9.1 NW 1.6 3.8 WNW AVERAGE 6.8
2024-05-22 09:40 pm 7.5 7.2 9.1 NW 2.0 4.0 WNW AVERAGE 6.6
2024-05-22 09:10 pm 8.2 7.9 9.1 NW 2.3 4.5 NW AVERAGE 6.7
2024-05-22 08:40 pm 7.9 7.5 9.1 NW 2.3 4.0 NW AVERAGE 6.6
2024-05-22 08:10 pm 8.5 8.5 9.1WNW 2.0 3.4 NW AVERAGE 6.5

Plot of wave energy versus frequency (and period)